QPF
0.00 0.00 0.00 0.00 0.00 0.00 0.00 0.00 0.01 0.00 0.00 0.01 0.01 0.01 0.00 0.01 0.01 0.00 0.00 0.00 0.02 0.02 0.01 0.00 0.00 0.00 0.00 0.00 0.00 0.00 0.00 0.00 0.00 0.00 0.00 0.00 0.00 0.00 0.00 0.00 0.00 0.00 0.00
0.00 0.00 0.00 0.00 0.00 0.00 0.00 0.00 0.01 0.02 0.02 0.01 0.01 0.01 0.00 0.00 0.00 0.01 0.00 0.01 0.00 0.01 0.01 0.01 0.00 0.00 0.00 0.00 0.00 0.00 0.00 0.00 0.00 0.00 0.00 0.00 0.00 0.00 0.00 0.00 0.00 0.00 0.00
0.02 0.02 0.06 0.03 0.01 0.00 0.00 0.00 0.00 0.01 0.01 0.01 0.01 0.01 0.01 0.02 0.01 0.00 0.01 0.04 0.03 0.07 0.05 0.00 0.00 0.00 0.00 0.00 0.02 0.04 0.01 0.02 0.00 0.02 0.00 0.01 0.01 0.00 0.00 0.00 0.00 0.00 0.00
0.12 0.14 0.17 0.09 0.05 0.05 0.03 0.02 0.00 0.01 0.00 0.01 0.01 0.03 0.07 0.11 0.07 0.07 0.07 0.11 0.08 0.12 0.08 0.04 0.03 0.01 0.01 0.01 0.06 0.01 0.01 0.02 0.03 0.01 0.02 0.01 0.03 0.00 0.00 0.00 0.00 0.00 0.00
0.17 0.21 0.26 0.15 0.09 0.10 0.10 0.16 0.09 0.05 0.03 0.01 0.05 0.19 0.22 0.09 0.08 0.23 0.21 0.07 0.11 0.12 0.13 0.23 0.15 0.11 0.11 0.07 0.00 0.01 0.00 0.00 0.00 0.00 0.00 0.00 0.00 0.00 0.00 0.00 0.00 0.00 0.00
0.10 0.05 0.04 0.09 0.13 0.13 0.13 0.16 0.13 0.14 0.12 0.08 0.04 0.04 0.02 0.15 0.28 0.08 0.02 0.03 0.11 0.07 0.05 0.12 0.22 0.16 0.12 0.06 0.02 0.01 0.00 0.00 0.00 0.00 0.00 0.00 0.03 0.04 0.00 0.00 0.00 0.00 0.00
0.05 0.01 0.00 0.00 0.01 0.01 0.02 0.06 0.13 0.15 0.17 0.16 0.09 0.06 0.03 0.05 0.04 0.02 0.07 0.11 0.14 0.16 0.15 0.13 0.09 0.09 0.02 0.04 0.02 0.00 0.02 0.00 0.01 0.00 0.00 0.01 0.01 0.05 0.00 0.00 0.00 0.00 0.00
0.00 0.00 0.00 0.00 0.00 0.01 0.03 0.03 0.07 0.10 0.12 0.12 0.08 0.05 0.01 0.00 0.00 0.00 0.03 0.08 0.07 0.10 0.09 0.05 0.05 0.02 0.00 0.00 0.00 0.00 0.00 0.00 0.00 0.00 0.00 0.00 0.00 0.00 0.00 0.00 0.00 0.00 0.00
0.02 0.03 0.02 0.00 0.00 0.00 0.02 0.03 0.03 0.04 0.04 0.04 0.01 0.00 0.00 0.00 0.00 0.00 0.10 0.07 0.05 0.04 0.01 0.00 0.00 0.00 0.00 0.00 0.00 0.00 0.00 0.00 0.00 0.00 0.00 0.00 0.00 0.00 0.00 0.00 0.00 0.00 0.00
0.06 0.06 0.00 0.00 0.00 0.00 0.00 0.00 0.00 0.01 0.00 0.00 0.00 0.00 0.00 0.00 0.00 0.00 0.06 0.06 0.03 0.00 0.00 0.00 0.00 0.00 0.00 0.00 0.00 0.00 0.00 0.00 0.00 0.00 0.00 0.00 0.00 0.00 0.00 0.00 0.00 0.00 0.00
0.02 0.03 0.00 0.00 0.00 0.00 0.00 0.00 0.00 0.00 0.00 0.00 0.00 0.00 0.00 0.00 0.00 0.00 0.01 0.03 0.01 0.00 0.00 0.00 0.00 0.00 0.00 0.00 0.00 0.00 0.00 0.00 0.00 0.00 0.00 0.00 0.00 0.00 0.00 0.00 0.00 0.00 0.00
0.00 0.01 0.00 0.00 0.00 0.00 0.00 0.00 0.00 0.00 0.00 0.00 0.00 0.00 0.00 0.00 0.00 0.00 0.00 0.00 0.00 0.00 0.00 0.00 0.00 0.00 0.00 0.00 0.00 0.00 0.00 0.00 0.00 0.00 0.00 0.00 0.00 0.00 0.00 0.00 0.00 0.00 0.00
0.01 0.01 0.01 0.00 0.00 0.00 0.00 0.00 0.00 0.00 0.00 0.00 0.00 0.00 0.00 0.00 0.00 0.00 0.00 0.00 0.00 0.00 0.00 0.00 0.00 0.00 0.00 0.00 0.00 0.00 0.00 0.00 0.00 0.00 0.00 0.00 0.00 0.00 0.00 0.00 0.00 0.00 0.00
0.00 0.00 0.00 0.00 0.00 0.00 0.00 0.00 0.00 0.00 0.00 0.00 0.00 0.00 0.00 0.00 0.00 0.00 0.00 0.00 0.00 0.00 0.00 0.00 0.00 0.00 0.00 0.00 0.00 0.00 0.00 0.00 0.00 0.00 0.00 0.00 0.00 0.00 0.00 0.00 0.00 0.00 0.00
0.01 0.00 0.00 0.00 0.00 0.00 0.00 0.01 0.01 0.00 0.00 0.00 0.00 0.00 0.00 0.00 0.00 0.00 0.00 0.00 0.00 0.00 0.00 0.00 0.00 0.00 0.00 0.00 0.00 0.00 0.00 0.00 0.00 0.00 0.00 0.00 0.00 0.00 0.00 0.00 0.00 0.00 0.00
0.00 0.00 0.01 0.01 0.01 0.01 0.02 0.01 0.00 0.00 0.00 0.00 0.00 0.00 0.00 0.00 0.00 0.00 0.00 0.00 0.00 0.00 0.00 0.00 0.00 0.00 0.00 0.00 0.00 0.00 0.00 0.00 0.00 0.00 0.00 0.00 0.00 0.00 0.00 0.00 0.00 0.00 0.00
0.00 0.00 0.00 0.00 0.00 0.00 0.00 0.00 0.00 0.00 0.00 0.00 0.00 0.00 0.00 0.00 0.00 0.00 0.00 0.00 0.00 0.00 0.00 0.00 0.00 0.00 0.00 0.00 0.00 0.00 0.00 0.00 0.00 0.00 0.00 0.00 0.00 0.00 0.00 0.00 0.00 0.00 0.00
0.00 0.00 0.00 0.00 0.00 0.00 0.00 0.00 0.00 0.00 0.00 0.00 0.00 0.00 0.00 0.00 0.00 0.00 0.00 0.00 0.00 0.00 0.00 0.00 0.00 0.00 0.00 0.00 0.00 0.00 0.00 0.00 0.00 0.00 0.00 0.00 0.00 0.00 0.00 0.00 0.00 0.00 0.00
0.00 0.00 0.00 0.00 0.00 0.00 0.00 0.00 0.00 0.00 0.00 0.00 0.00 0.00 0.00 0.00 0.00 0.00 0.00 0.00 0.00 0.00 0.00 0.00 0.00 0.00 0.00 0.00 0.00 0.00 0.00 0.00 0.00 0.00 0.00 0.00 0.00 0.00 0.00 0.00 0.00 0.00 0.00
0.00 0.00 0.00 0.00 0.00 0.00 0.00 0.00 0.00 0.00 0.00 0.00 0.00 0.00 0.00 0.00 0.00 0.00 0.00 0.00 0.00 0.00 0.00 0.00 0.00 0.00 0.00 0.00 0.00 0.00 0.00 0.00 0.00 0.00 0.00 0.00 0.00 0.00 0.00 0.00 0.00 0.00 0.00
0.00 0.00 0.00 0.00 0.00 0.00 0.00 0.00 0.00 0.00 0.00 0.00 0.00 0.00 0.00 0.00 0.00 0.00 0.00 0.00 0.00 0.00 0.00 0.00 0.00 0.00 0.00 0.00 0.00 0.00 0.00 0.00 0.00 0.00 0.00 0.00 0.00 0.00 0.00 0.00 0.00 0.00 0.00
0.00 0.00 0.00 0.00 0.00 0.00 0.00 0.00 0.00 0.00 0.00 0.00 0.00 0.00 0.00 0.00 0.00 0.00 0.00 0.00 0.00 0.00 0.00 0.00 0.00 0.00 0.00 0.00 0.00 0.00 0.00 0.00 0.00 0.00 0.00 0.00 0.00 0.00 0.00 0.00 0.00 0.00 0.00
0.00 0.00 0.00 0.00 0.00 0.00 0.00 0.00 0.00 0.00 0.00 0.00 0.00 0.00 0.00 0.00 0.00 0.00 0.00 0.00 0.00 0.00 0.00 0.00 0.00 0.00 0.00 0.00 0.00 0.00 0.00 0.00 0.00 0.00 0.00 0.00 0.00 0.00 0.00 0.00 0.00 0.00 0.00
0.00 0.00 0.00 0.00 0.00 0.00 0.00 0.00 0.00 0.00 0.00 0.00 0.00 0.00 0.00 0.00 0.00 0.00 0.00 0.00 0.00 0.00 0.00 0.00 0.00 0.00 0.00 0.00 0.00 0.00 0.00 0.00 0.00 0.00 0.00 0.00 0.00 0.00 0.00 0.00 0.00 0.00 0.00
0.00 0.00 0.00 0.00 0.00 0.00 0.00 0.00 0.00 0.00 0.00 0.00 0.00 0.00 0.00 0.00 0.00 0.00 0.00 0.00 0.00 0.00 0.00 0.00 0.00 0.00 0.00 0.00 0.00 0.00 0.00 0.00 0.00 0.00 0.00 0.00 0.00 0.00 0.00 0.00 0.00 0.00 0.00
0.00 0.00 0.00 0.00 0.00 0.00 0.00 0.00 0.00 0.00 0.00 0.00 0.00 0.00 0.00 0.00 0.00 0.00 0.00 0.00 0.00 0.00 0.00 0.00 0.00 0.00 0.00 0.00 0.00 0.00 0.00 0.00 0.00 0.00 0.00 0.00 0.00 0.00 0.00 0.00 0.00 0.00 0.00
MSLP
1016.67 1017.11 1017.62 1018.09 1018.25 1018.36 1018.60 1018.91 1019.15 1019.18 1019.51 1019.33 1019.23 1019.47 1019.61 1019.65 1019.64 1020.11 1020.49 1020.71 1020.93 1021.11 1021.18 1021.31 1021.35 1021.24 1021.23 1021.25 1021.09 1020.83 1020.83 1020.61 1021.13 1020.65 1019.84 1019.04 1018.63 1018.14 1017.66 1017.29 1017.15 1016.96 1016.60
1016.37 1016.78 1017.29 1017.80 1018.05 1018.29 1018.51 1018.63 1018.98 1019.11 1019.11 1019.03 1019.15 1019.49 1019.45 1019.51 1019.69 1020.01 1020.42 1020.73 1020.99 1021.28 1021.29 1021.13 1021.11 1020.93 1020.97 1021.04 1020.85 1020.90 1020.98 1021.02 1021.15 1020.75 1019.89 1019.07 1018.69 1018.31 1018.11 1017.84 1017.54 1017.18 1016.75
1016.08 1016.49 1017.03 1017.34 1017.74 1017.87 1018.15 1018.39 1018.66 1018.90 1019.09 1019.06 1019.18 1019.33 1019.46 1019.47 1019.67 1020.00 1020.26 1020.51 1020.76 1020.90 1021.17 1021.13 1020.89 1020.77 1020.85 1020.91 1020.98 1021.27 1021.16 1021.05 1020.85 1020.69 1020.27 1019.53 1019.17 1018.79 1018.66 1018.29 1018.00 1017.35 1016.76
1015.97 1017.07 1017.33 1017.36 1017.46 1017.93 1018.01 1018.23 1018.29 1018.49 1018.76 1019.03 1019.31 1019.37 1019.47 1019.76 1019.97 1020.07 1020.15 1020.35 1020.68 1020.98 1020.97 1020.86 1020.94 1020.71 1020.92 1020.85 1021.01 1021.15 1021.05 1020.91 1020.86 1020.84 1020.58 1020.20 1019.89 1019.41 1019.16 1018.93 1018.21 1017.89 1017.40
1015.99 1016.90 1017.64 1017.60 1017.81 1018.04 1018.19 1018.34 1018.68 1018.34 1018.47 1018.77 1019.13 1019.66 1020.06 1020.45 1020.91 1020.75 1020.23 1020.27 1020.75 1020.91 1021.24 1021.61 1021.49 1021.13 1020.79 1020.89 1020.99 1021.05 1020.96 1020.95 1020.91 1020.92 1020.82 1020.56 1020.27 1019.83 1019.59 1019.46 1019.19 1018.52 1017.71
1016.50 1017.66 1017.85 1018.01 1018.07 1018.37 1018.59 1018.51 1018.62 1018.64 1019.07 1019.17 1019.96 1020.51 1020.97 1021.18 1021.17 1020.86 1020.49 1020.59 1020.83 1020.59 1020.71 1021.73 1022.06 1021.53 1021.47 1021.34 1021.14 1020.70 1020.91 1021.07 1021.10 1021.20 1021.15 1021.01 1020.60 1020.27 1019.98 1019.76 1019.44 1018.95 1018.47
1017.13 1017.35 1017.52 1017.88 1018.32 1018.71 1018.85 1018.74 1018.67 1019.07 1019.57 1019.78 1020.67 1021.36 1021.57 1021.53 1021.17 1020.71 1020.35 1020.63 1020.87 1020.98 1021.62 1022.37 1022.36 1022.15 1022.12 1021.80 1021.17 1020.85 1020.93 1020.88 1021.16 1021.32 1021.26 1020.98 1020.58 1020.28 1020.11 1019.82 1019.58 1019.39 1019.10
1016.85 1017.25 1017.38 1018.15 1018.64 1018.88 1019.04 1018.99 1018.87 1018.99 1019.68 1020.25 1020.90 1021.37 1021.53 1021.77 1021.28 1020.53 1020.32 1020.59 1021.32 1022.07 1022.39 1022.57 1022.61 1022.53 1022.51 1022.11 1021.86 1021.67 1021.61 1021.42 1021.45 1021.23 1021.37 1020.88 1020.46 1020.03 1019.99 1019.84 1019.61 1019.46 1019.09
1016.97 1017.31 1017.69 1018.42 1018.95 1019.05 1019.21 1019.46 1019.59 1019.37 1020.47 1021.16 1020.99 1020.92 1021.71 1021.82 1021.22 1020.38 1020.49 1021.00 1021.64 1022.27 1022.55 1022.51 1022.68 1022.85 1022.73 1022.43 1022.33 1022.39 1022.21 1021.86 1021.31 1021.03 1020.68 1020.53 1020.30 1020.27 1020.05 1019.78 1019.91 1019.81 1019.80
1017.25 1017.60 1018.02 1018.64 1018.99 1019.29 1019.48 1019.74 1020.36 1020.41 1020.67 1021.13 1021.63 1021.99 1022.19 1021.89 1021.75 1021.17 1020.91 1021.40 1022.15 1022.63 1023.01 1023.23 1023.20 1023.31 1023.24 1022.99 1022.91 1022.87 1022.80 1022.50 1021.86 1021.10 1020.64 1020.67 1020.70 1020.58 1020.46 1020.43 1020.47 1020.63 1020.66
1018.02 1018.47 1018.60 1018.89 1019.22 1019.35 1019.58 1019.86 1020.65 1021.11 1021.37 1021.83 1022.14 1022.47 1022.24 1022.51 1022.56 1022.33 1021.98 1021.98 1022.18 1022.85 1023.33 1023.68 1023.59 1023.59 1023.59 1023.54 1023.19 1023.06 1023.23 1022.81 1022.23 1021.95 1021.85 1021.72 1021.69 1021.54 1021.30 1021.21 1021.24 1021.45 1021.50
1018.72 1019.10 1019.22 1019.23 1019.51 1019.92 1019.99 1020.30 1020.73 1021.05 1021.53 1022.00 1022.21 1022.37 1022.50 1022.90 1023.01 1023.14 1023.00 1022.83 1022.84 1023.01 1023.59 1023.55 1023.57 1023.52 1023.42 1023.29 1023.21 1022.97 1022.93 1022.75 1022.92 1022.86 1022.80 1022.89 1022.70 1022.46 1022.45 1022.25 1022.14 1021.92 1021.81
1019.35 1019.65 1019.93 1020.31 1020.51 1020.51 1020.69 1020.89 1021.14 1021.32 1021.76 1022.08 1022.36 1022.65 1022.98 1023.05 1023.16 1023.30 1023.55 1023.36 1023.43 1023.67 1023.79 1023.65 1023.46 1023.53 1023.41 1023.48 1023.77 1023.56 1023.78 1023.93 1024.07 1023.88 1023.96 1024.05 1023.88 1023.57 1023.20 1022.85 1022.76 1022.50 1022.19
1020.12 1020.31 1020.95 1021.21 1021.65 1021.75 1021.89 1022.05 1022.14 1022.53 1022.71 1022.67 1022.58 1022.95 1023.47 1023.67 1023.80 1023.93 1024.44 1024.20 1023.99 1024.13 1024.06 1024.12 1023.57 1023.67 1023.82 1024.31 1024.28 1024.62 1024.58 1024.61 1024.96 1024.91 1025.03 1024.73 1024.36 1023.96 1024.11 1024.08 1023.91 1023.59 1023.22
1020.83 1021.10 1021.67 1021.99 1022.60 1022.92 1023.28 1023.69 1023.95 1024.20 1024.10 1023.57 1023.22 1023.36 1023.91 1024.59 1024.81 1024.81 1025.20 1025.15 1024.90 1024.75 1024.83 1024.62 1024.32 1024.45 1024.79 1024.94 1025.15 1025.30 1025.59 1025.66 1025.53 1025.46 1025.49 1025.23 1025.10 1025.10 1025.10 1024.94 1024.93 1024.82 1024.76
1021.17 1021.31 1021.72 1022.15 1022.68 1023.41 1023.72 1024.51 1024.86 1024.93 1024.30 1023.91 1023.73 1023.60 1024.08 1024.62 1025.15 1025.04 1024.93 1024.83 1025.16 1025.23 1024.80 1025.03 1025.53 1025.58 1025.66 1026.01 1026.14 1026.11 1026.25 1026.35 1026.23 1026.13 1026.12 1026.14 1025.96 1025.88 1025.91 1025.87 1025.80 1025.76 1025.65
1021.03 1021.26 1021.48 1021.97 1022.27 1022.87 1023.12 1024.02 1024.49 1025.04 1024.43 1024.66 1024.47 1024.45 1024.32 1024.76 1025.15 1025.18 1025.21 1024.87 1024.39 1024.55 1025.32 1025.65 1025.89 1026.45 1026.65 1026.73 1027.04 1027.09 1027.18 1027.17 1026.95 1026.92 1026.93 1027.14 1026.99 1026.71 1026.59 1026.78 1026.60 1026.53 1026.33
1020.91 1020.75 1021.19 1021.75 1021.79 1022.16 1022.45 1022.76 1023.33 1024.50 1024.03 1024.65 1024.74 1024.83 1024.87 1024.99 1024.97 1025.37 1025.31 1024.77 1024.92 1025.04 1025.63 1026.05 1026.61 1026.84 1026.99 1027.52 1027.79 1027.82 1027.62 1027.59 1027.80 1027.91 1027.70 1027.92 1028.16 1028.05 1027.78 1027.87 1027.35 1027.40 1027.11
1020.81 1020.58 1020.85 1020.93 1021.17 1021.62 1021.95 1022.42 1022.79 1023.74 1024.35 1024.61 1024.99 1024.86 1024.77 1024.72 1025.01 1025.11 1025.37 1025.34 1025.44 1025.60 1025.97 1026.59 1026.79 1027.01 1027.35 1028.07 1028.25 1028.11 1028.12 1028.12 1028.49 1028.54 1028.61 1028.77 1028.89 1028.59 1028.47 1028.36 1028.17 1027.96 1027.87
1020.91 1020.90 1021.05 1021.16 1021.17 1021.48 1021.67 1021.97 1022.40 1023.41 1024.19 1024.47 1024.93 1025.01 1024.95 1024.99 1024.96 1025.05 1025.17 1025.37 1025.42 1025.91 1026.41 1026.76 1026.99 1027.26 1027.79 1028.50 1028.70 1028.45 1028.35 1028.66 1028.97 1029.11 1029.32 1029.31 1029.27 1029.13 1029.10 1029.01 1028.76 1028.53 1028.42
1020.95 1021.16 1021.41 1021.74 1021.67 1021.61 1021.90 1021.99 1022.21 1022.82 1023.45 1023.98 1024.51 1024.69 1024.77 1025.14 1025.35 1025.37 1025.37 1025.59 1025.76 1026.28 1026.66 1027.17 1027.57 1027.75 1027.88 1028.33 1028.68 1028.76 1028.96 1029.24 1029.35 1029.54 1029.80 1029.78 1029.61 1029.50 1029.35 1029.11 1029.06 1028.99 1028.68
1021.12 1021.36 1021.63 1021.82 1021.83 1021.94 1021.81 1021.85 1022.36 1022.83 1023.19 1023.67 1024.12 1024.36 1024.17 1024.35 1024.85 1025.08 1025.31 1025.51 1025.81 1026.25 1026.64 1027.01 1027.63 1027.68 1027.72 1028.05 1028.37 1028.75 1029.05 1029.42 1029.39 1029.64 1029.83 1029.89 1029.93 1029.72 1029.33 1029.33 1029.10 1028.89 1028.63
1021.15 1021.41 1021.75 1021.82 1021.83 1021.87 1022.02 1022.06 1022.45 1022.75 1022.94 1023.21 1023.54 1023.81 1023.89 1023.91 1024.19 1024.59 1024.82 1025.30 1025.65 1025.97 1026.35 1026.76 1026.97 1027.43 1027.44 1027.51 1027.67 1028.19 1028.71 1029.00 1028.97 1029.07 1029.41 1029.64 1029.64 1029.53 1029.29 1029.15 1028.99 1028.67 1028.16
1020.95 1021.14 1021.45 1021.63 1021.78 1022.06 1022.14 1022.22 1022.29 1022.38 1022.45 1022.70 1023.10 1023.32 1023.41 1023.60 1023.77 1024.13 1024.48 1024.85 1025.36 1025.62 1025.98 1026.21 1026.44 1026.78 1026.99 1027.24 1027.47 1027.87 1028.07 1028.37 1028.49 1028.54 1028.73 1029.18 1029.41 1029.37 1029.20 1028.85 1028.51 1028.21 1027.81
1020.75 1020.84 1021.03 1021.38 1021.57 1021.70 1021.81 1021.93 1022.05 1022.13 1022.27 1022.38 1022.68 1022.91 1022.97 1023.06 1023.32 1023.71 1024.13 1024.41 1024.85 1025.20 1025.47 1025.64 1025.79 1025.96 1026.36 1026.83 1027.18 1027.45 1027.58 1027.63 1027.85 1028.24 1028.49 1028.88 1028.94 1028.97 1028.91 1028.48 1028.11 1027.76 1027.41
1020.26 1020.47 1020.70 1020.86 1021.15 1021.25 1021.37 1021.48 1021.72 1021.85 1022.06 1022.01 1022.09 1022.22 1022.43 1022.80 1023.04 1023.17 1023.54 1023.80 1024.22 1024.46 1024.67 1024.92 1025.07 1025.32 1025.67 1025.92 1026.14 1026.48 1026.88 1027.11 1027.57 1027.72 1028.15 1028.56 1028.68 1028.56 1028.20 1027.97 1027.78 1027.37 1026.96
Thickness
5781 5782 5781 5780 5783 5784 5784 5784 5782 5782 5780 5783 5787 5786 5784 5783 5782 5778 5774 5775 5774 5775 5776 5774 5772 5773 5773 5773 5776 5780 5781 5782 5770 5776 5786 5794 5797 5800 5800 5801 5800 5800 5801
5781 5780 5778 5778 5780 5780 5780 5782 5782 5781 5782 5784 5784 5783 5784 5784 5783 5778 5774 5773 5772 5769 5770 5774 5775 5779 5776 5775 5776 5776 5775 5775 5770 5771 5783 5790 5792 5795 5794 5795 5794 5796 5800
5780 5778 5777 5777 5775 5778 5779 5782 5780 5782 5782 5783 5784 5782 5781 5782 5781 5777 5775 5775 5774 5772 5769 5769 5773 5775 5774 5773 5773 5768 5771 5772 5775 5774 5775 5783 5786 5788 5786 5789 5791 5794 5798
5778 5772 5771 5773 5775 5775 5778 5777 5780 5781 5781 5779 5779 5780 5779 5777 5774 5773 5774 5775 5773 5771 5772 5773 5771 5771 5769 5769 5768 5768 5770 5772 5771 5769 5769 5772 5775 5780 5782 5780 5785 5789 5790
5772 5769 5764 5767 5769 5771 5771 5770 5769 5776 5778 5779 5776 5771 5769 5765 5760 5761 5769 5770 5766 5764 5765 5762 5762 5765 5768 5767 5766 5766 5766 5765 5766 5764 5764 5765 5766 5770 5771 5775 5774 5778 5785
5761 5753 5754 5758 5761 5761 5761 5764 5764 5766 5763 5763 5759 5754 5753 5754 5753 5758 5762 5762 5761 5764 5763 5756 5751 5758 5759 5758 5760 5762 5761 5759 5757 5756 5755 5756 5759 5762 5766 5767 5768 5769 5766
5744 5748 5753 5754 5754 5752 5752 5756 5758 5756 5753 5751 5747 5740 5740 5744 5747 5754 5758 5758 5757 5756 5753 5746 5745 5748 5750 5751 5755 5756 5757 5756 5755 5752 5750 5753 5755 5759 5760 5760 5761 5762 5763
5745 5746 5749 5746 5745 5744 5743 5747 5750 5750 5746 5737 5732 5735 5737 5737 5742 5749 5754 5753 5747 5741 5740 5737 5737 5740 5739 5742 5743 5743 5744 5746 5746 5747 5747 5751 5754 5756 5755 5755 5755 5756 5759
5741 5741 5740 5737 5734 5736 5737 5736 5737 5740 5733 5726 5729 5733 5729 5730 5736 5743 5746 5740 5735 5731 5731 5731 5731 5730 5732 5734 5733 5731 5731 5733 5737 5741 5745 5746 5748 5747 5747 5747 5745 5745 5740
5736 5734 5732 5730 5730 5729 5730 5728 5725 5725 5723 5721 5719 5715 5715 5720 5721 5728 5733 5729 5721 5718 5718 5716 5717 5718 5719 5721 5721 5720 5719 5721 5724 5730 5734 5733 5734 5733 5735 5735 5734 5728 5725
5723 5719 5720 5721 5721 5722 5723 5722 5715 5712 5711 5707 5704 5703 5706 5705 5706 5709 5713 5713 5712 5709 5705 5702 5704 5707 5708 5709 5711 5713 5711 5711 5713 5712 5712 5713 5715 5717 5716 5716 5715 5715 5711
5709 5708 5711 5713 5712 5710 5710 5712 5710 5708 5704 5701 5699 5696 5694 5692 5692 5693 5695 5698 5696 5698 5694 5694 5693 5697 5699 5699 5697 5700 5700 5699 5699 5699 5697 5694 5695 5696 5697 5697 5697 5698 5697
5696 5696 5697 5696 5696 5698 5698 5699 5698 5698 5698 5696 5694 5690 5687 5686 5684 5684 5682 5684 5684 5684 5685 5685 5686 5686 5686 5688 5687 5688 5685 5682 5681 5682 5679 5678 5679 5680 5680 5681 5682 5683 5683
5679 5682 5678 5679 5679 5679 5680 5680 5681 5679 5683 5686 5685 5680 5677 5676 5676 5676 5671 5672 5674 5674 5676 5676 5678 5678 5677 5672 5672 5669 5669 5668 5665 5665 5663 5665 5667 5670 5667 5665 5664 5665 5667
5661 5663 5661 5660 5657 5657 5657 5656 5657 5655 5659 5668 5670 5667 5665 5661 5660 5662 5659 5659 5661 5664 5662 5662 5664 5663 5661 5660 5658 5656 5653 5652 5651 5651 5650 5652 5652 5650 5649 5649 5648 5647 5646
5646 5648 5648 5648 5645 5641 5641 5637 5639 5639 5646 5652 5653 5655 5652 5650 5647 5650 5653 5654 5652 5650 5653 5651 5645 5645 5644 5640 5639 5639 5638 5636 5635 5635 5634 5633 5633 5633 5631 5629 5628 5627 5626
5637 5636 5638 5637 5636 5633 5634 5628 5629 5624 5632 5633 5636 5638 5640 5637 5636 5637 5639 5642 5643 5644 5638 5635 5632 5627 5625 5623 5619 5619 5617 5616 5617 5617 5615 5611 5611 5612 5611 5607 5607 5606 5605
5623 5628 5627 5626 5626 5625 5626 5627 5624 5613 5622 5618 5620 5621 5622 5623 5624 5623 5624 5628 5627 5625 5621 5618 5613 5610 5608 5603 5600 5599 5600 5598 5595 5593 5593 5590 5586 5586 5586 5583 5586 5583 5582
5613 5617 5617 5618 5618 5616 5614 5615 5613 5608 5604 5604 5602 5604 5606 5609 5609 5609 5609 5609 5608 5607 5603 5598 5596 5593 5589 5583 5582 5581 5580 5578 5574 5572 5570 5566 5563 5565 5564 5563 5562 5561 5559
5599 5602 5603 5602 5604 5604 5602 5604 5603 5596 5590 5588 5586 5586 5588 5591 5592 5590 5591 5591 5590 5587 5582 5577 5577 5575 5569 5563 5561 5561 5561 5557 5553 5551 5547 5545 5544 5543 5541 5539 5538 5537 5535
5583 5584 5585 5581 5585 5587 5586 5588 5589 5585 5578 5577 5571 5570 5573 5571 5570 5569 5569 5570 5568 5562 5560 5556 5553 5552 5550 5545 5542 5540 5538 5534 5532 5528 5524 5522 5522 5521 5519 5517 5514 5510 5509
5567 5567 5568 5569 5570 5570 5572 5571 5570 5568 5567 5565 5558 5554 5557 5559 5557 5556 5553 5551 5550 5546 5542 5541 5535 5535 5534 5531 5527 5523 5519 5515 5515 5511 5506 5503 5500 5499 5499 5494 5492 5488 5486
5556 5555 5553 5555 5555 5556 5555 5555 5553 5551 5552 5551 5549 5546 5547 5547 5547 5544 5541 5538 5534 5532 5528 5524 5524 5521 5519 5517 5515 5509 5504 5502 5501 5497 5491 5485 5481 5479 5476 5472 5469 5466 5464
5546 5546 5545 5544 5543 5542 5541 5540 5541 5541 5540 5540 5539 5537 5537 5536 5535 5534 5529 5523 5520 5517 5515 5512 5511 5508 5505 5499 5497 5492 5490 5486 5482 5479 5475 5468 5462 5459 5457 5455 5452 5448 5444
5535 5536 5536 5533 5532 5532 5531 5528 5528 5528 5528 5527 5526 5526 5526 5526 5523 5520 5516 5512 5509 5506 5502 5501 5499 5497 5492 5484 5481 5478 5476 5473 5470 5463 5458 5452 5448 5444 5441 5438 5435 5432 5426
5529 5527 5526 5525 5524 5523 5521 5520 5519 5517 5516 5517 5516 5514 5516 5514 5511 5510 5506 5503 5500 5497 5494 5491 5489 5487 5483 5477 5473 5471 5465 5461 5456 5452 5445 5438 5434 5431 5428 5423 5418 5414 5409